GEFSGL_prec_meanprecacc_228.txt.gz
Total_Precipitation_Accumulation
0.93 1.00 1.07 1.09 1.18 1.33 1.45 1.47 1.46 1.42 1.38 1.35 1.29 1.23 1.18 1.11 1.07 1.06 1.05 1.09 1.16 1.17 1.20 1.22 1.18 1.15 1.22 1.25 1.31 1.38 1.47 1.59 1.54 1.09 0.88 0.84 0.85 0.82 0.80 0.75 0.70 0.68 0.66
0.91 0.94 1.00 1.01 1.01 1.09 1.19 1.31 1.39 1.46 1.36 1.31 1.26 1.20 1.13 1.09 1.05 1.02 0.99 0.97 1.01 1.06 1.09 1.14 1.12 1.08 1.10 1.13 1.18 1.18 1.19 1.23 1.31 1.14 0.85 0.76 0.74 0.70 0.69 0.68 0.66 0.63 0.57
0.83 0.85 0.87 0.88 0.87 0.91 0.97 1.09 1.17 1.28 1.28 1.23 1.23 1.16 1.06 1.02 1.00 0.97 0.93 0.93 0.94 0.94 0.97 1.05 1.10 1.12 1.13 1.13 1.13 1.12 1.11 1.13 1.21 1.21 0.95 0.76 0.71 0.69 0.70 0.67 0.65 0.65 0.60
0.76 0.82 0.83 0.80 0.79 0.83 0.91 0.96 1.02 1.07 1.16 1.16 1.15 1.19 1.17 1.09 1.06 1.03 0.98 0.94 0.95 0.95 0.95 1.00 1.06 1.08 1.05 1.03 1.05 1.03 1.05 1.11 1.14 1.19 1.11 0.93 0.79 0.70 0.75 0.76 0.75 0.69 0.68
0.69 0.79 0.82 0.83 0.86 0.95 0.97 0.93 0.94 0.96 1.02 1.07 1.09 1.13 1.15 1.15 1.12 1.11 1.08 1.06 1.07 1.09 1.05 1.02 1.03 1.08 1.07 1.03 1.02 1.02 1.05 1.12 1.21 1.27 1.19 1.02 0.87 0.78 0.73 0.69 0.76 0.75 0.74
0.56 0.64 0.72 0.79 0.86 0.95 1.00 0.98 0.94 0.91 0.96 1.04 1.04 1.09 1.16 1.18 1.32 1.29 1.19 1.15 1.14 1.11 1.05 0.97 0.95 0.99 1.00 1.04 1.05 1.05 1.11 1.21 1.32 1.37 1.29 1.10 0.86 0.78 0.79 0.90 1.01 1.12 1.05
0.47 0.51 0.61 0.76 0.83 0.87 0.92 0.96 0.96 0.96 1.05 1.14 1.15 1.16 1.24 1.34 1.41 1.24 1.18 1.09 1.07 1.03 0.96 0.91 0.87 0.85 0.90 0.84 0.90 0.98 1.01 1.12 1.21 1.24 1.20 0.97 0.83 0.78 0.96 1.13 1.16 1.19 1.04
0.49 0.54 0.61 0.70 0.80 0.90 0.94 0.99 1.02 1.02 1.10 1.19 1.24 1.26 1.28 1.31 1.34 1.24 1.15 0.99 0.94 0.90 0.85 0.80 0.79 0.78 0.79 0.86 0.93 0.99 0.91 0.86 0.87 0.86 0.86 0.82 0.82 0.88 1.10 1.34 1.43 1.45 1.24
0.47 0.53 0.56 0.64 0.73 0.86 0.96 1.03 1.07 1.10 1.13 1.18 1.17 1.14 1.11 1.12 1.12 1.04 1.04 0.94 0.92 0.85 0.78 0.77 0.78 0.75 0.84 1.00 1.05 1.06 0.91 0.77 0.77 0.84 0.92 0.92 0.95 1.00 1.10 1.37 1.62 1.75 1.52
0.44 0.49 0.52 0.58 0.66 0.77 0.89 0.98 1.02 1.04 1.05 1.03 1.02 0.97 0.94 0.94 1.00 0.93 0.93 0.92 0.92 0.85 0.79 0.77 0.85 0.83 0.94 1.06 1.01 1.02 0.94 0.77 0.72 0.74 0.77 0.79 0.75 0.77 0.95 1.12 1.55 2.00 1.73
0.44 0.50 0.53 0.57 0.63 0.71 0.78 0.81 0.83 0.83 0.82 0.81 0.79 0.77 0.76 0.79 0.84 0.82 0.83 0.86 0.87 0.88 0.86 0.78 0.77 0.94 1.03 1.07 0.99 0.84 0.85 0.92 0.85 0.75 0.74 0.74 0.73 0.74 0.77 0.84 1.11 1.80 2.14
0.45 0.50 0.56 0.58 0.57 0.58 0.61 0.65 0.63 0.63 0.63 0.63 0.63 0.64 0.66 0.69 0.73 0.77 0.81 0.86 0.91 0.86 0.81 0.73 0.75 0.94 0.96 0.92 0.85 0.86 0.95 0.92 0.78 0.80 0.79 0.76 0.75 0.76 0.79 0.84 0.90 1.09 1.45
0.46 0.48 0.49 0.50 0.49 0.50 0.51 0.52 0.54 0.55 0.56 0.59 0.59 0.59 0.61 0.62 0.65 0.75 0.77 0.84 0.90 0.83 0.78 0.82 0.86 0.88 0.83 0.79 0.82 0.85 0.83 0.79 0.84 0.92 0.88 0.80 0.78 0.82 0.88 0.94 0.96 0.98 1.07
0.39 0.39 0.39 0.39 0.41 0.42 0.44 0.46 0.50 0.51 0.51 0.52 0.53 0.53 0.53 0.54 0.54 0.59 0.67 0.73 0.79 0.78 0.80 0.82 0.79 0.77 0.75 0.76 0.82 0.80 0.74 0.79 0.96 1.02 0.93 0.85 0.86 0.93 0.98 1.05 1.19 1.21 1.30
0.32 0.31 0.30 0.31 0.36 0.40 0.41 0.42 0.46 0.49 0.54 0.55 0.52 0.51 0.53 0.53 0.54 0.67 0.73 0.70 0.77 0.81 0.81 0.71 0.66 0.67 0.68 0.68 0.67 0.71 0.74 0.79 0.89 0.91 0.97 0.98 0.97 1.05 1.14 1.24 1.41 1.49 1.53
0.30 0.29 0.29 0.27 0.31 0.38 0.42 0.42 0.46 0.50 0.56 0.61 0.60 0.57 0.53 0.56 0.61 0.66 0.69 0.75 0.81 0.84 0.78 0.69 0.64 0.62 0.63 0.65 0.66 0.68 0.72 0.78 0.88 1.01 1.07 1.11 1.17 1.24 1.33 1.38 1.52 1.64 1.56
0.29 0.30 0.30 0.30 0.33 0.37 0.39 0.40 0.41 0.42 0.46 0.53 0.56 0.57 0.56 0.56 0.57 0.60 0.66 0.70 0.67 0.69 0.63 0.60 0.60 0.61 0.61 0.63 0.69 0.74 0.77 0.79 0.94 1.15 1.25 1.30 1.39 1.44 1.50 1.54 1.56 1.54 1.39
0.26 0.29 0.28 0.29 0.33 0.36 0.39 0.41 0.39 0.37 0.37 0.38 0.43 0.50 0.53 0.54 0.54 0.58 0.65 0.63 0.56 0.56 0.54 0.54 0.54 0.57 0.63 0.68 0.74 0.83 0.88 0.91 1.03 1.17 1.28 1.34 1.45 1.58 1.62 1.55 1.46 1.40 1.30
0.24 0.25 0.26 0.27 0.30 0.33 0.36 0.39 0.39 0.36 0.35 0.33 0.33 0.39 0.49 0.53 0.55 0.57 0.59 0.55 0.53 0.52 0.50 0.50 0.51 0.57 0.65 0.71 0.78 0.87 0.98 1.09 1.18 1.33 1.39 1.41 1.49 1.67 1.64 1.45 1.31 1.21 1.15
0.22 0.25 0.26 0.25 0.27 0.30 0.32 0.35 0.37 0.35 0.34 0.32 0.31 0.32 0.41 0.52 0.51 0.49 0.50 0.51 0.54 0.55 0.53 0.53 0.53 0.58 0.66 0.73 0.80 0.92 1.05 1.12 1.22 1.32 1.37 1.41 1.48 1.58 1.54 1.30 1.12 1.08 1.00
0.22 0.23 0.27 0.26 0.27 0.29 0.32 0.34 0.37 0.39 0.38 0.34 0.32 0.37 0.52 0.55 0.50 0.47 0.49 0.51 0.54 0.58 0.60 0.62 0.61 0.63 0.69 0.77 0.86 0.94 1.06 1.14 1.23 1.35 1.39 1.35 1.34 1.30 1.14 1.07 1.02 1.00 1.00
0.24 0.23 0.24 0.25 0.26 0.29 0.34 0.35 0.36 0.37 0.38 0.36 0.33 0.38 0.50 0.46 0.41 0.41 0.44 0.45 0.45 0.50 0.57 0.67 0.69 0.68 0.81 1.01 1.19 1.28 1.22 1.16 1.19 1.33 1.36 1.24 1.15 1.06 1.00 1.02 1.01 1.02 1.03
0.25 0.26 0.26 0.26 0.27 0.31 0.34 0.32 0.33 0.35 0.36 0.36 0.35 0.35 0.38 0.40 0.38 0.38 0.39 0.38 0.39 0.42 0.46 0.56 0.65 0.64 0.70 0.94 1.22 1.58 1.70 1.48 1.38 1.45 1.51 1.33 1.13 1.05 1.07 1.09 1.02 1.01 0.98
0.26 0.29 0.30 0.30 0.31 0.32 0.32 0.31 0.32 0.34 0.35 0.36 0.35 0.35 0.35 0.37 0.37 0.36 0.36 0.37 0.38 0.39 0.42 0.50 0.59 0.63 0.69 0.91 1.13 1.30 1.46 1.59 1.77 1.76 1.67 1.61 1.35 1.15 1.11 1.08 0.98 0.92 0.91
0.29 0.31 0.33 0.33 0.33 0.33 0.34 0.34 0.34 0.34 0.35 0.36 0.36 0.36 0.36 0.36 0.37 0.36 0.35 0.37 0.39 0.39 0.38 0.44 0.56 0.65 0.74 0.89 1.08 1.21 1.32 1.46 1.58 1.59 1.51 1.43 1.25 1.09 1.06 1.04 0.95 0.89 0.88
0.30 0.32 0.34 0.35 0.35 0.34 0.35 0.36 0.36 0.36 0.38 0.37 0.38 0.38 0.39 0.38 0.38 0.37 0.37 0.38 0.41 0.39 0.37 0.40 0.47 0.60 0.74 0.87 0.95 1.11 1.25 1.22 1.06 0.99 1.16 1.25 1.16 0.99 0.98 1.04 0.95 0.91 0.89

GEFSGL_prec_meanprecacc_234.txt.gz
Total_Precipitation_Accumulation
0.97 1.04 1.09 1.12 1.20 1.36 1.49 1.51 1.51 1.48 1.46 1.43 1.36 1.30 1.25 1.18 1.14 1.13 1.11 1.16 1.23 1.24 1.27 1.28 1.22 1.20 1.26 1.29 1.34 1.40 1.49 1.60 1.55 1.10 0.89 0.85 0.87 0.84 0.83 0.78 0.73 0.70 0.67
0.94 0.97 1.03 1.05 1.03 1.11 1.23 1.35 1.43 1.50 1.41 1.38 1.33 1.27 1.20 1.15 1.11 1.08 1.04 1.03 1.07 1.10 1.13 1.18 1.16 1.12 1.13 1.16 1.21 1.20 1.20 1.24 1.32 1.15 0.86 0.78 0.75 0.71 0.71 0.70 0.68 0.65 0.59
0.86 0.88 0.90 0.91 0.90 0.93 1.00 1.12 1.20 1.31 1.32 1.28 1.29 1.22 1.12 1.07 1.05 1.02 0.98 0.97 0.98 0.97 1.00 1.09 1.13 1.15 1.15 1.14 1.15 1.13 1.12 1.14 1.22 1.23 0.96 0.78 0.72 0.70 0.71 0.68 0.67 0.66 0.60
0.78 0.84 0.86 0.83 0.82 0.87 0.94 0.99 1.04 1.10 1.19 1.19 1.20 1.23 1.21 1.14 1.10 1.07 1.02 0.98 0.99 0.98 0.97 1.03 1.09 1.11 1.07 1.04 1.06 1.03 1.06 1.12 1.15 1.21 1.12 0.94 0.80 0.71 0.76 0.77 0.76 0.70 0.68
0.71 0.80 0.85 0.86 0.90 0.99 1.01 0.97 0.97 0.99 1.05 1.11 1.13 1.17 1.19 1.19 1.16 1.15 1.12 1.10 1.12 1.12 1.07 1.04 1.04 1.09 1.08 1.04 1.03 1.03 1.06 1.13 1.22 1.29 1.21 1.03 0.89 0.79 0.74 0.71 0.77 0.76 0.75
0.57 0.65 0.74 0.81 0.89 0.99 1.04 1.01 0.97 0.94 0.99 1.07 1.07 1.13 1.20 1.22 1.36 1.34 1.24 1.20 1.19 1.15 1.09 0.99 0.96 1.01 1.01 1.05 1.06 1.06 1.12 1.23 1.34 1.39 1.31 1.12 0.88 0.79 0.80 0.92 1.03 1.14 1.06
0.48 0.53 0.63 0.78 0.86 0.90 0.97 1.00 0.99 0.98 1.08 1.17 1.18 1.19 1.27 1.39 1.46 1.30 1.23 1.13 1.11 1.07 1.00 0.94 0.89 0.86 0.92 0.86 0.92 0.99 1.04 1.14 1.24 1.27 1.22 1.00 0.87 0.81 0.99 1.16 1.18 1.21 1.06
0.51 0.56 0.63 0.73 0.83 0.92 0.98 1.03 1.06 1.06 1.13 1.22 1.27 1.28 1.31 1.34 1.38 1.28 1.21 1.05 1.00 0.96 0.90 0.84 0.83 0.80 0.82 0.89 0.96 1.02 0.94 0.89 0.89 0.88 0.88 0.84 0.84 0.91 1.13 1.37 1.46 1.49 1.27
0.49 0.55 0.59 0.68 0.78 0.89 1.00 1.08 1.11 1.13 1.16 1.21 1.20 1.17 1.14 1.15 1.16 1.08 1.08 0.98 0.98 0.92 0.86 0.83 0.82 0.78 0.87 1.03 1.09 1.10 0.95 0.81 0.80 0.87 0.94 0.94 0.97 1.03 1.12 1.39 1.64 1.78 1.55
0.46 0.52 0.56 0.62 0.72 0.82 0.93 1.02 1.07 1.09 1.10 1.07 1.05 1.00 0.97 0.97 1.04 0.97 0.97 0.96 0.97 0.91 0.85 0.83 0.90 0.88 0.97 1.09 1.05 1.06 0.99 0.81 0.76 0.76 0.79 0.81 0.77 0.80 0.98 1.14 1.57 2.02 1.76
0.46 0.52 0.56 0.60 0.67 0.75 0.81 0.85 0.89 0.89 0.89 0.87 0.85 0.82 0.80 0.83 0.89 0.86 0.87 0.91 0.92 0.93 0.92 0.84 0.83 1.00 1.09 1.12 1.03 0.88 0.89 0.96 0.88 0.78 0.76 0.76 0.75 0.76 0.79 0.86 1.13 1.83 2.17
0.47 0.53 0.58 0.60 0.59 0.61 0.64 0.69 0.68 0.68 0.70 0.70 0.70 0.71 0.72 0.75 0.78 0.82 0.85 0.91 0.96 0.90 0.86 0.79 0.82 1.01 1.02 0.98 0.90 0.91 0.99 0.95 0.81 0.82 0.81 0.78 0.77 0.78 0.80 0.85 0.91 1.11 1.47
0.48 0.49 0.51 0.53 0.52 0.53 0.54 0.56 0.58 0.60 0.61 0.64 0.65 0.66 0.67 0.68 0.71 0.80 0.82 0.89 0.95 0.88 0.83 0.88 0.93 0.94 0.89 0.85 0.87 0.90 0.87 0.82 0.86 0.94 0.90 0.82 0.79 0.83 0.89 0.95 0.97 0.99 1.08
0.41 0.41 0.41 0.42 0.44 0.46 0.47 0.50 0.54 0.56 0.56 0.56 0.58 0.58 0.59 0.60 0.59 0.64 0.72 0.78 0.85 0.84 0.86 0.88 0.85 0.82 0.80 0.81 0.86 0.84 0.77 0.81 0.98 1.04 0.94 0.86 0.86 0.94 0.99 1.06 1.20 1.22 1.30
0.35 0.34 0.33 0.34 0.39 0.43 0.44 0.47 0.51 0.54 0.59 0.60 0.56 0.55 0.58 0.58 0.59 0.72 0.78 0.75 0.82 0.87 0.87 0.77 0.72 0.72 0.73 0.71 0.70 0.73 0.75 0.81 0.90 0.92 0.98 0.98 0.98 1.06 1.14 1.24 1.41 1.50 1.54
0.33 0.33 0.33 0.31 0.35 0.42 0.46 0.46 0.51 0.55 0.61 0.66 0.65 0.61 0.57 0.60 0.65 0.71 0.74 0.80 0.86 0.89 0.82 0.73 0.68 0.66 0.66 0.68 0.68 0.69 0.73 0.78 0.89 1.01 1.08 1.11 1.18 1.25 1.33 1.38 1.53 1.65 1.57
0.32 0.33 0.34 0.33 0.37 0.41 0.44 0.44 0.45 0.47 0.51 0.58 0.62 0.62 0.61 0.62 0.63 0.66 0.72 0.75 0.72 0.73 0.66 0.63 0.64 0.64 0.64 0.66 0.71 0.76 0.78 0.79 0.95 1.15 1.26 1.31 1.40 1.45 1.51 1.56 1.57 1.55 1.40
0.29 0.32 0.31 0.32 0.37 0.40 0.43 0.44 0.43 0.41 0.42 0.44 0.49 0.55 0.58 0.59 0.59 0.62 0.69 0.67 0.60 0.59 0.57 0.57 0.58 0.60 0.65 0.70 0.75 0.84 0.89 0.92 1.03 1.18 1.29 1.35 1.46 1.59 1.64 1.57 1.48 1.42 1.32
0.26 0.27 0.28 0.30 0.33 0.36 0.38 0.42 0.41 0.39 0.38 0.36 0.36 0.43 0.52 0.56 0.58 0.60 0.62 0.58 0.56 0.55 0.52 0.53 0.54 0.59 0.66 0.73 0.79 0.88 0.99 1.10 1.19 1.34 1.39 1.42 1.50 1.68 1.65 1.46 1.32 1.22 1.16
0.24 0.27 0.27 0.27 0.29 0.32 0.34 0.37 0.39 0.37 0.36 0.35 0.34 0.35 0.43 0.54 0.54 0.52 0.53 0.53 0.56 0.57 0.54 0.54 0.54 0.59 0.67 0.74 0.81 0.92 1.06 1.13 1.22 1.33 1.38 1.42 1.49 1.60 1.55 1.31 1.13 1.09 1.01
0.24 0.25 0.28 0.27 0.28 0.31 0.34 0.36 0.39 0.40 0.40 0.36 0.34 0.39 0.54 0.57 0.52 0.49 0.51 0.53 0.56 0.59 0.61 0.63 0.62 0.64 0.69 0.77 0.86 0.94 1.07 1.15 1.24 1.37 1.40 1.37 1.36 1.32 1.15 1.09 1.03 1.02 1.02
0.25 0.25 0.25 0.26 0.28 0.31 0.35 0.37 0.37 0.38 0.39 0.37 0.34 0.39 0.51 0.47 0.42 0.42 0.45 0.46 0.47 0.51 0.58 0.68 0.70 0.69 0.82 1.02 1.20 1.29 1.23 1.17 1.20 1.34 1.38 1.25 1.16 1.07 1.01 1.04 1.03 1.03 1.04
0.26 0.26 0.26 0.27 0.29 0.33 0.35 0.33 0.34 0.36 0.37 0.37 0.36 0.36 0.39 0.40 0.39 0.39 0.39 0.39 0.40 0.43 0.47 0.56 0.66 0.65 0.71 0.95 1.23 1.59 1.71 1.50 1.39 1.47 1.53 1.35 1.15 1.07 1.09 1.10 1.04 1.03 1.00
0.27 0.30 0.31 0.31 0.32 0.33 0.33 0.33 0.34 0.35 0.36 0.37 0.36 0.35 0.36 0.38 0.38 0.37 0.37 0.37 0.39 0.40 0.42 0.51 0.60 0.64 0.70 0.91 1.14 1.31 1.47 1.61 1.79 1.78 1.68 1.64 1.38 1.17 1.13 1.11 1.00 0.94 0.94
0.30 0.32 0.34 0.34 0.34 0.34 0.35 0.35 0.35 0.35 0.36 0.37 0.36 0.36 0.36 0.37 0.37 0.36 0.36 0.37 0.39 0.39 0.38 0.45 0.57 0.66 0.74 0.90 1.08 1.22 1.33 1.47 1.59 1.61 1.54 1.46 1.28 1.11 1.08 1.06 0.97 0.91 0.90
0.30 0.33 0.35 0.36 0.36 0.35 0.36 0.37 0.37 0.37 0.39 0.38 0.39 0.39 0.40 0.39 0.39 0.38 0.38 0.39 0.41 0.40 0.38 0.40 0.47 0.61 0.74 0.88 0.96 1.11 1.26 1.23 1.07 1.01 1.18 1.28 1.19 1.02 1.01 1.07 0.98 0.94 0.92

GEFSGL_prec_meanprecacc_240.txt.gz
Total_Precipitation_Accumulation
0.98 1.06 1.12 1.14 1.24 1.41 1.54 1.58 1.57 1.54 1.52 1.49 1.42 1.35 1.29 1.23 1.20 1.21 1.20 1.24 1.31 1.31 1.34 1.34 1.27 1.24 1.31 1.35 1.39 1.45 1.52 1.64 1.59 1.13 0.92 0.87 0.89 0.86 0.85 0.80 0.74 0.72 0.69
0.96 0.99 1.05 1.07 1.06 1.14 1.26 1.38 1.47 1.54 1.45 1.42 1.39 1.31 1.24 1.20 1.15 1.13 1.10 1.09 1.13 1.16 1.18 1.23 1.21 1.16 1.17 1.20 1.24 1.23 1.24 1.27 1.35 1.18 0.90 0.80 0.78 0.73 0.73 0.72 0.69 0.66 0.60
0.88 0.90 0.92 0.93 0.92 0.96 1.03 1.15 1.23 1.34 1.35 1.31 1.32 1.26 1.16 1.13 1.10 1.08 1.04 1.03 1.04 1.02 1.04 1.12 1.16 1.18 1.18 1.17 1.17 1.15 1.14 1.17 1.24 1.25 0.98 0.79 0.74 0.72 0.73 0.69 0.67 0.67 0.61
0.80 0.87 0.88 0.85 0.84 0.89 0.97 1.02 1.08 1.13 1.21 1.21 1.22 1.26 1.25 1.19 1.16 1.12 1.08 1.04 1.04 1.02 1.00 1.06 1.11 1.12 1.08 1.06 1.08 1.06 1.08 1.13 1.17 1.22 1.13 0.95 0.81 0.72 0.77 0.78 0.76 0.70 0.68
0.73 0.82 0.87 0.87 0.91 1.00 1.03 0.99 0.99 1.01 1.07 1.13 1.15 1.20 1.23 1.23 1.20 1.19 1.16 1.14 1.15 1.15 1.10 1.06 1.06 1.11 1.09 1.05 1.04 1.04 1.07 1.15 1.23 1.30 1.22 1.04 0.89 0.80 0.74 0.71 0.78 0.77 0.75
0.58 0.67 0.76 0.83 0.91 1.01 1.06 1.03 0.99 0.96 1.01 1.09 1.10 1.16 1.23 1.25 1.40 1.37 1.26 1.22 1.22 1.18 1.11 1.02 0.99 1.03 1.03 1.07 1.08 1.07 1.14 1.24 1.35 1.40 1.31 1.12 0.88 0.80 0.81 0.93 1.03 1.15 1.07
0.49 0.54 0.64 0.80 0.87 0.92 0.99 1.03 1.01 1.00 1.09 1.19 1.20 1.22 1.30 1.42 1.50 1.33 1.26 1.15 1.14 1.10 1.03 0.98 0.92 0.89 0.95 0.88 0.94 1.01 1.05 1.16 1.25 1.28 1.23 1.00 0.87 0.82 1.00 1.17 1.20 1.23 1.07
0.52 0.57 0.65 0.74 0.84 0.95 1.01 1.06 1.08 1.08 1.15 1.24 1.29 1.30 1.33 1.37 1.41 1.31 1.24 1.07 1.02 0.98 0.92 0.87 0.86 0.84 0.85 0.92 0.99 1.04 0.96 0.90 0.91 0.90 0.89 0.84 0.85 0.92 1.14 1.39 1.48 1.50 1.28
0.50 0.56 0.60 0.69 0.80 0.92 1.03 1.10 1.13 1.15 1.18 1.23 1.21 1.19 1.16 1.18 1.19 1.10 1.10 1.01 1.01 0.95 0.89 0.86 0.86 0.83 0.92 1.07 1.12 1.13 0.98 0.83 0.82 0.89 0.96 0.95 0.98 1.04 1.13 1.40 1.66 1.79 1.56
0.47 0.53 0.57 0.63 0.73 0.85 0.96 1.05 1.10 1.12 1.12 1.09 1.07 1.02 0.98 0.99 1.07 0.99 0.99 0.98 0.99 0.93 0.88 0.86 0.93 0.92 1.02 1.14 1.08 1.09 1.01 0.84 0.78 0.79 0.81 0.83 0.79 0.81 0.99 1.15 1.58 2.04 1.78
0.47 0.53 0.57 0.61 0.68 0.78 0.84 0.88 0.91 0.92 0.91 0.89 0.86 0.83 0.81 0.84 0.90 0.88 0.90 0.93 0.94 0.96 0.95 0.88 0.87 1.04 1.14 1.18 1.08 0.92 0.93 0.99 0.91 0.81 0.79 0.79 0.78 0.78 0.82 0.88 1.15 1.85 2.19
0.48 0.53 0.59 0.61 0.60 0.62 0.66 0.71 0.70 0.70 0.72 0.72 0.73 0.73 0.74 0.77 0.80 0.83 0.88 0.94 1.00 0.94 0.90 0.83 0.86 1.05 1.07 1.03 0.97 0.97 1.06 1.01 0.85 0.86 0.85 0.83 0.81 0.81 0.83 0.88 0.94 1.13 1.49
0.49 0.50 0.52 0.54 0.53 0.54 0.55 0.58 0.60 0.62 0.64 0.67 0.68 0.69 0.70 0.70 0.73 0.82 0.84 0.91 0.98 0.91 0.87 0.92 0.97 0.99 0.94 0.89 0.92 0.95 0.93 0.88 0.92 0.99 0.95 0.86 0.82 0.87 0.92 0.98 0.99 1.01 1.10
0.43 0.42 0.42 0.43 0.46 0.47 0.49 0.52 0.57 0.59 0.59 0.60 0.62 0.62 0.63 0.63 0.62 0.66 0.75 0.80 0.87 0.87 0.90 0.92 0.90 0.86 0.84 0.85 0.91 0.88 0.81 0.86 1.03 1.09 0.99 0.90 0.90 0.97 1.01 1.08 1.22 1.24 1.33
0.37 0.35 0.35 0.36 0.41 0.45 0.47 0.50 0.54 0.58 0.63 0.64 0.60 0.59 0.62 0.62 0.62 0.76 0.81 0.78 0.84 0.89 0.90 0.80 0.75 0.75 0.77 0.75 0.74 0.77 0.80 0.85 0.95 0.97 1.02 1.02 1.01 1.09 1.17 1.26 1.43 1.52 1.56
0.36 0.36 0.36 0.34 0.38 0.45 0.48 0.50 0.55 0.59 0.65 0.69 0.69 0.65 0.61 0.64 0.69 0.74 0.78 0.84 0.89 0.92 0.86 0.77 0.72 0.70 0.70 0.71 0.71 0.72 0.76 0.82 0.93 1.06 1.12 1.15 1.21 1.28 1.36 1.41 1.55 1.67 1.59
0.36 0.37 0.38 0.38 0.41 0.45 0.47 0.48 0.49 0.51 0.55 0.62 0.65 0.66 0.65 0.65 0.66 0.69 0.75 0.79 0.76 0.77 0.70 0.68 0.68 0.67 0.67 0.69 0.74 0.79 0.82 0.82 0.98 1.19 1.29 1.34 1.43 1.48 1.53 1.57 1.59 1.57 1.42
0.34 0.37 0.36 0.37 0.41 0.44 0.46 0.47 0.45 0.44 0.45 0.48 0.53 0.59 0.62 0.62 0.62 0.66 0.73 0.71 0.64 0.63 0.61 0.61 0.62 0.64 0.68 0.73 0.79 0.87 0.93 0.95 1.06 1.21 1.32 1.38 1.48 1.61 1.65 1.58 1.49 1.43 1.33
0.31 0.32 0.32 0.34 0.36 0.39 0.41 0.45 0.44 0.41 0.40 0.39 0.40 0.46 0.56 0.60 0.62 0.64 0.65 0.60 0.59 0.58 0.56 0.56 0.58 0.62 0.70 0.76 0.83 0.92 1.02 1.13 1.21 1.36 1.42 1.44 1.52 1.70 1.67 1.47 1.34 1.23 1.18
0.29 0.32 0.31 0.30 0.32 0.34 0.36 0.39 0.41 0.39 0.38 0.36 0.36 0.38 0.47 0.58 0.58 0.55 0.56 0.56 0.59 0.60 0.57 0.57 0.57 0.62 0.70 0.77 0.84 0.95 1.08 1.16 1.24 1.35 1.40 1.44 1.51 1.62 1.57 1.33 1.15 1.11 1.03
0.28 0.29 0.31 0.30 0.30 0.33 0.35 0.37 0.40 0.42 0.41 0.37 0.36 0.41 0.56 0.60 0.55 0.52 0.55 0.57 0.59 0.62 0.64 0.65 0.64 0.66 0.71 0.79 0.88 0.96 1.09 1.17 1.25 1.38 1.42 1.38 1.37 1.33 1.17 1.10 1.05 1.03 1.04
0.27 0.27 0.27 0.28 0.29 0.32 0.36 0.38 0.39 0.40 0.40 0.39 0.36 0.41 0.53 0.49 0.44 0.45 0.48 0.49 0.50 0.54 0.60 0.70 0.72 0.71 0.83 1.03 1.21 1.30 1.24 1.18 1.21 1.35 1.39 1.27 1.18 1.09 1.03 1.06 1.04 1.05 1.06
0.27 0.28 0.28 0.28 0.30 0.34 0.36 0.35 0.36 0.38 0.39 0.39 0.38 0.38 0.41 0.42 0.41 0.41 0.42 0.41 0.42 0.45 0.49 0.58 0.67 0.66 0.72 0.96 1.24 1.60 1.72 1.51 1.40 1.48 1.54 1.37 1.16 1.09 1.11 1.12 1.05 1.05 1.02
0.28 0.30 0.31 0.32 0.33 0.34 0.34 0.34 0.35 0.37 0.38 0.38 0.37 0.37 0.37 0.39 0.39 0.38 0.38 0.39 0.40 0.41 0.43 0.52 0.61 0.64 0.70 0.92 1.14 1.32 1.48 1.62 1.80 1.79 1.70 1.65 1.39 1.18 1.15 1.12 1.02 0.96 0.96
0.30 0.32 0.34 0.35 0.35 0.35 0.36 0.36 0.36 0.36 0.37 0.38 0.37 0.37 0.37 0.38 0.38 0.37 0.37 0.38 0.40 0.41 0.39 0.45 0.57 0.66 0.75 0.90 1.09 1.23 1.33 1.47 1.60 1.62 1.55 1.47 1.29 1.12 1.10 1.08 0.99 0.93 0.92
0.31 0.33 0.35 0.37 0.37 0.36 0.37 0.39 0.39 0.39 0.40 0.40 0.40 0.40 0.41 0.40 0.39 0.39 0.39 0.40 0.42 0.41 0.38 0.41 0.48 0.61 0.75 0.88 0.96 1.12 1.26 1.24 1.08 1.02 1.20 1.30 1.21 1.04 1.03 1.09 1.01 0.97 0.94

GEFSGL_prec_meanprecacc_246.txt.gz
Total_Precipitation_Accumulation
1.01 1.09 1.14 1.16 1.26 1.44 1.59 1.63 1.63 1.60 1.57 1.53 1.45 1.38 1.33 1.27 1.24 1.26 1.26 1.34 1.40 1.40 1.41 1.41 1.35 1.31 1.36 1.40 1.43 1.50 1.58 1.69 1.63 1.16 0.95 0.91 0.94 0.89 0.88 0.84 0.78 0.76 0.73
0.99 1.02 1.08 1.09 1.08 1.16 1.29 1.42 1.51 1.58 1.49 1.47 1.43 1.36 1.29 1.24 1.20 1.18 1.15 1.17 1.21 1.26 1.26 1.30 1.27 1.22 1.21 1.24 1.28 1.27 1.28 1.31 1.39 1.22 0.93 0.83 0.81 0.76 0.75 0.75 0.72 0.69 0.63
0.91 0.93 0.95 0.96 0.94 0.98 1.05 1.18 1.26 1.37 1.38 1.35 1.36 1.31 1.21 1.17 1.15 1.13 1.09 1.09 1.10 1.10 1.13 1.20 1.22 1.23 1.22 1.20 1.20 1.18 1.17 1.19 1.27 1.28 1.01 0.82 0.77 0.74 0.75 0.72 0.70 0.69 0.63
0.81 0.89 0.91 0.88 0.87 0.91 0.99 1.05 1.10 1.16 1.24 1.24 1.25 1.29 1.28 1.23 1.20 1.16 1.13 1.09 1.09 1.08 1.08 1.14 1.18 1.17 1.12 1.09 1.11 1.08 1.10 1.16 1.20 1.25 1.16 0.97 0.83 0.74 0.79 0.80 0.79 0.72 0.70
0.74 0.83 0.89 0.90 0.93 1.03 1.05 1.01 1.02 1.03 1.09 1.14 1.17 1.22 1.25 1.24 1.23 1.22 1.18 1.17 1.18 1.19 1.14 1.11 1.13 1.17 1.13 1.08 1.07 1.07 1.09 1.17 1.26 1.32 1.24 1.06 0.91 0.81 0.76 0.72 0.79 0.78 0.77
0.59 0.68 0.78 0.85 0.93 1.03 1.08 1.06 1.01 0.98 1.03 1.11 1.11 1.18 1.24 1.27 1.42 1.40 1.29 1.25 1.25 1.20 1.14 1.05 1.02 1.08 1.08 1.10 1.10 1.09 1.16 1.26 1.37 1.41 1.33 1.14 0.90 0.81 0.82 0.94 1.05 1.16 1.08
0.51 0.55 0.66 0.82 0.89 0.94 1.01 1.05 1.03 1.02 1.11 1.22 1.23 1.24 1.32 1.44 1.52 1.35 1.28 1.17 1.16 1.12 1.05 1.00 0.94 0.91 0.97 0.90 0.96 1.03 1.06 1.17 1.27 1.30 1.25 1.01 0.88 0.84 1.02 1.18 1.21 1.23 1.08
0.54 0.59 0.66 0.76 0.86 0.97 1.03 1.07 1.10 1.10 1.17 1.27 1.31 1.33 1.35 1.39 1.44 1.33 1.26 1.10 1.04 0.99 0.94 0.89 0.88 0.86 0.87 0.94 1.01 1.06 0.98 0.92 0.92 0.91 0.91 0.87 0.87 0.93 1.15 1.40 1.49 1.51 1.29
0.52 0.58 0.62 0.70 0.81 0.93 1.04 1.12 1.15 1.17 1.21 1.25 1.24 1.21 1.18 1.19 1.21 1.13 1.13 1.03 1.02 0.97 0.90 0.88 0.88 0.85 0.95 1.11 1.15 1.15 1.00 0.85 0.84 0.90 0.97 0.97 1.00 1.05 1.14 1.41 1.67 1.80 1.57
0.50 0.55 0.59 0.65 0.75 0.86 0.97 1.07 1.12 1.14 1.14 1.12 1.10 1.04 1.00 1.00 1.09 1.02 1.02 1.00 1.01 0.95 0.89 0.87 0.95 0.94 1.05 1.17 1.11 1.11 1.03 0.85 0.80 0.80 0.83 0.84 0.80 0.82 1.00 1.16 1.59 2.05 1.79
0.49 0.55 0.59 0.63 0.70 0.79 0.86 0.89 0.93 0.94 0.93 0.91 0.88 0.85 0.83 0.86 0.92 0.90 0.92 0.94 0.96 0.98 0.97 0.89 0.88 1.07 1.17 1.21 1.11 0.94 0.95 1.01 0.93 0.83 0.81 0.80 0.79 0.79 0.83 0.89 1.16 1.86 2.20
0.51 0.56 0.61 0.63 0.62 0.63 0.67 0.72 0.71 0.72 0.74 0.74 0.74 0.74 0.76 0.78 0.82 0.85 0.90 0.96 1.01 0.96 0.92 0.85 0.89 1.08 1.10 1.06 0.99 1.00 1.09 1.04 0.87 0.89 0.88 0.85 0.83 0.83 0.85 0.90 0.95 1.14 1.50
0.52 0.53 0.55 0.56 0.55 0.56 0.57 0.59 0.62 0.63 0.65 0.68 0.69 0.70 0.71 0.71 0.74 0.84 0.86 0.93 1.00 0.93 0.90 0.95 1.00 1.02 0.96 0.91 0.95 0.98 0.96 0.91 0.95 1.03 0.98 0.88 0.84 0.89 0.94 1.00 1.02 1.04 1.12
0.45 0.45 0.45 0.45 0.47 0.49 0.50 0.54 0.59 0.61 0.60 0.61 0.63 0.64 0.64 0.65 0.63 0.68 0.76 0.82 0.90 0.90 0.93 0.95 0.93 0.90 0.87 0.88 0.94 0.91 0.84 0.88 1.06 1.13 1.03 0.94 0.93 1.00 1.04 1.11 1.25 1.27 1.35
0.40 0.38 0.37 0.38 0.43 0.46 0.48 0.51 0.56 0.60 0.65 0.66 0.62 0.62 0.64 0.64 0.65 0.78 0.83 0.80 0.87 0.92 0.93 0.83 0.78 0.79 0.80 0.79 0.77 0.80 0.82 0.88 0.98 1.00 1.06 1.06 1.05 1.12 1.20 1.30 1.46 1.54 1.58
0.39 0.39 0.38 0.36 0.40 0.46 0.50 0.52 0.58 0.61 0.67 0.71 0.71 0.67 0.64 0.67 0.73 0.78 0.81 0.86 0.91 0.94 0.88 0.79 0.74 0.73 0.74 0.75 0.74 0.75 0.79 0.84 0.95 1.08 1.15 1.18 1.24 1.31 1.39 1.43 1.57 1.69 1.61
0.39 0.40 0.40 0.40 0.43 0.47 0.49 0.49 0.51 0.53 0.57 0.64 0.67 0.68 0.67 0.68 0.69 0.73 0.79 0.81 0.78 0.78 0.71 0.69 0.70 0.69 0.70 0.71 0.76 0.81 0.84 0.84 1.00 1.21 1.32 1.37 1.46 1.51 1.56 1.60 1.61 1.59 1.44
0.39 0.41 0.39 0.40 0.43 0.46 0.48 0.50 0.47 0.45 0.47 0.49 0.54 0.61 0.64 0.65 0.65 0.69 0.76 0.74 0.66 0.65 0.63 0.63 0.64 0.66 0.70 0.75 0.81 0.89 0.95 0.97 1.09 1.23 1.34 1.41 1.51 1.65 1.69 1.62 1.52 1.46 1.36
0.36 0.37 0.38 0.39 0.41 0.42 0.44 0.47 0.46 0.43 0.41 0.40 0.41 0.48 0.58 0.63 0.65 0.67 0.68 0.62 0.61 0.60 0.59 0.60 0.61 0.65 0.73 0.79 0.85 0.94 1.04 1.15 1.24 1.39 1.44 1.47 1.55 1.73 1.70 1.51 1.37 1.27 1.21
0.35 0.38 0.37 0.36 0.38 0.40 0.41 0.42 0.44 0.41 0.39 0.38 0.37 0.39 0.48 0.60 0.60 0.58 0.59 0.59 0.61 0.62 0.60 0.61 0.62 0.66 0.74 0.81 0.87 0.98 1.11 1.19 1.27 1.38 1.43 1.46 1.53 1.64 1.60 1.36 1.18 1.13 1.05
0.34 0.35 0.38 0.36 0.36 0.38 0.40 0.42 0.44 0.45 0.44 0.40 0.38 0.43 0.59 0.62 0.57 0.55 0.57 0.59 0.62 0.65 0.67 0.69 0.68 0.71 0.76 0.84 0.92 1.00 1.12 1.20 1.29 1.41 1.44 1.41 1.39 1.35 1.19 1.12 1.07 1.05 1.05
0.32 0.32 0.33 0.34 0.35 0.38 0.41 0.42 0.42 0.43 0.43 0.41 0.38 0.43 0.55 0.51 0.47 0.47 0.50 0.52 0.52 0.56 0.63 0.73 0.75 0.74 0.87 1.07 1.25 1.34 1.27 1.22 1.24 1.38 1.42 1.29 1.20 1.11 1.05 1.07 1.06 1.07 1.08
0.30 0.31 0.32 0.33 0.34 0.39 0.41 0.38 0.39 0.40 0.42 0.41 0.40 0.40 0.42 0.44 0.43 0.43 0.44 0.43 0.45 0.48 0.52 0.61 0.70 0.69 0.75 0.98 1.27 1.63 1.75 1.53 1.42 1.50 1.56 1.39 1.18 1.10 1.12 1.14 1.07 1.06 1.03
0.30 0.32 0.33 0.34 0.35 0.36 0.37 0.37 0.38 0.39 0.40 0.40 0.39 0.38 0.39 0.41 0.41 0.40 0.40 0.41 0.42 0.43 0.46 0.55 0.64 0.67 0.73 0.94 1.16 1.34 1.50 1.63 1.82 1.81 1.72 1.67 1.40 1.19 1.16 1.14 1.03 0.97 0.97
0.32 0.34 0.36 0.36 0.37 0.37 0.38 0.38 0.38 0.38 0.39 0.40 0.39 0.39 0.38 0.39 0.40 0.39 0.39 0.40 0.42 0.42 0.41 0.47 0.59 0.69 0.77 0.92 1.10 1.24 1.34 1.49 1.62 1.64 1.57 1.49 1.31 1.14 1.11 1.10 1.00 0.94 0.93
0.32 0.35 0.37 0.38 0.39 0.38 0.39 0.40 0.40 0.40 0.42 0.41 0.41 0.41 0.42 0.42 0.41 0.40 0.41 0.42 0.44 0.43 0.40 0.43 0.49 0.63 0.76 0.89 0.98 1.13 1.28 1.25 1.09 1.04 1.22 1.33 1.23 1.05 1.04 1.11 1.02 0.98 0.96

GEFSGL_prec_meanprecacc_252.txt.gz
Total_Precipitation_Accumulation
1.03 1.11 1.17 1.20 1.31 1.49 1.65 1.69 1.70 1.72 1.68 1.61 1.52 1.43 1.37 1.31 1.30 1.31 1.32 1.41 1.48 1.47 1.47 1.47 1.41 1.37 1.44 1.48 1.50 1.55 1.63 1.75 1.69 1.23 1.01 0.96 0.98 0.93 0.92 0.87 0.81 0.79 0.76
1.00 1.05 1.11 1.13 1.12 1.21 1.34 1.47 1.57 1.66 1.60 1.57 1.52 1.43 1.34 1.28 1.24 1.22 1.19 1.22 1.27 1.31 1.32 1.36 1.33 1.28 1.29 1.33 1.37 1.35 1.34 1.37 1.45 1.29 0.99 0.88 0.85 0.80 0.79 0.79 0.76 0.71 0.65
0.92 0.95 0.97 0.99 0.99 1.03 1.10 1.22 1.31 1.43 1.46 1.44 1.45 1.40 1.29 1.23 1.19 1.16 1.13 1.13 1.14 1.14 1.17 1.25 1.28 1.30 1.30 1.28 1.27 1.25 1.23 1.24 1.32 1.33 1.05 0.85 0.79 0.76 0.77 0.75 0.73 0.72 0.66
0.82 0.90 0.92 0.90 0.91 0.96 1.05 1.09 1.15 1.21 1.29 1.30 1.32 1.36 1.36 1.30 1.25 1.20 1.17 1.13 1.14 1.12 1.11 1.18 1.23 1.22 1.18 1.14 1.16 1.13 1.16 1.21 1.24 1.29 1.19 1.00 0.85 0.76 0.81 0.82 0.81 0.74 0.72
0.74 0.84 0.90 0.92 0.97 1.07 1.10 1.07 1.06 1.07 1.13 1.19 1.21 1.26 1.29 1.29 1.27 1.25 1.22 1.20 1.21 1.22 1.18 1.15 1.17 1.22 1.18 1.12 1.11 1.10 1.13 1.20 1.28 1.35 1.26 1.08 0.93 0.83 0.78 0.74 0.81 0.80 0.79
0.60 0.69 0.78 0.86 0.96 1.08 1.14 1.11 1.06 1.02 1.06 1.14 1.14 1.20 1.27 1.29 1.45 1.43 1.31 1.26 1.26 1.22 1.16 1.07 1.05 1.12 1.13 1.15 1.14 1.12 1.18 1.28 1.39 1.43 1.34 1.15 0.91 0.82 0.83 0.95 1.07 1.18 1.11
0.51 0.56 0.67 0.83 0.91 0.98 1.07 1.11 1.09 1.07 1.15 1.24 1.25 1.26 1.34 1.45 1.54 1.37 1.30 1.18 1.17 1.13 1.07 1.01 0.96 0.94 1.01 0.94 1.00 1.06 1.09 1.20 1.29 1.31 1.26 1.02 0.89 0.84 1.03 1.20 1.22 1.25 1.09
0.55 0.60 0.68 0.78 0.88 0.99 1.07 1.13 1.16 1.16 1.24 1.31 1.34 1.35 1.38 1.41 1.45 1.35 1.27 1.10 1.05 1.00 0.95 0.90 0.90 0.87 0.89 0.97 1.04 1.09 1.01 0.94 0.94 0.92 0.92 0.87 0.88 0.94 1.16 1.41 1.50 1.53 1.30
0.55 0.60 0.64 0.72 0.83 0.96 1.08 1.17 1.21 1.24 1.28 1.32 1.28 1.24 1.20 1.22 1.24 1.15 1.14 1.04 1.03 0.98 0.91 0.89 0.90 0.87 0.97 1.13 1.18 1.18 1.02 0.87 0.86 0.92 0.99 0.98 1.02 1.07 1.16 1.43 1.68 1.82 1.59
0.53 0.58 0.61 0.68 0.78 0.89 1.00 1.11 1.17 1.20 1.20 1.18 1.16 1.08 1.03 1.03 1.12 1.04 1.04 1.02 1.02 0.96 0.91 0.89 0.97 0.96 1.07 1.19 1.13 1.13 1.05 0.87 0.81 0.82 0.84 0.86 0.81 0.83 1.01 1.17 1.60 2.07 1.81
0.53 0.58 0.62 0.67 0.73 0.83 0.89 0.93 0.97 0.98 0.98 0.95 0.92 0.90 0.87 0.89 0.95 0.93 0.95 0.96 0.98 0.99 0.98 0.91 0.90 1.08 1.18 1.23 1.14 0.96 0.97 1.04 0.95 0.85 0.82 0.81 0.80 0.80 0.84 0.90 1.17 1.87 2.22
0.54 0.58 0.64 0.67 0.66 0.67 0.71 0.76 0.75 0.75 0.77 0.77 0.77 0.77 0.79 0.82 0.85 0.88 0.93 0.98 1.03 0.97 0.93 0.86 0.89 1.10 1.11 1.08 1.02 1.03 1.12 1.07 0.90 0.91 0.90 0.87 0.84 0.84 0.86 0.91 0.97 1.16 1.52
0.54 0.55 0.57 0.59 0.59 0.60 0.61 0.64 0.67 0.67 0.67 0.70 0.71 0.72 0.73 0.73 0.77 0.87 0.88 0.96 1.02 0.95 0.91 0.96 1.01 1.03 0.98 0.93 0.97 1.01 1.00 0.95 0.99 1.06 1.01 0.91 0.86 0.91 0.96 1.02 1.03 1.05 1.14
0.48 0.47 0.47 0.47 0.50 0.52 0.53 0.58 0.63 0.66 0.63 0.63 0.65 0.65 0.65 0.66 0.64 0.69 0.78 0.85 0.92 0.91 0.94 0.97 0.94 0.91 0.88 0.90 0.96 0.94 0.87 0.92 1.10 1.16 1.06 0.96 0.95 1.02 1.06 1.12 1.26 1.29 1.37
0.43 0.40 0.39 0.40 0.44 0.48 0.50 0.54 0.59 0.63 0.68 0.68 0.64 0.63 0.65 0.65 0.66 0.79 0.85 0.82 0.88 0.93 0.94 0.84 0.80 0.80 0.82 0.80 0.79 0.81 0.84 0.91 1.01 1.04 1.09 1.09 1.07 1.15 1.23 1.31 1.48 1.56 1.60
0.43 0.42 0.41 0.38 0.42 0.48 0.51 0.54 0.61 0.64 0.70 0.74 0.73 0.69 0.65 0.69 0.74 0.80 0.83 0.88 0.93 0.97 0.90 0.80 0.75 0.74 0.75 0.76 0.75 0.77 0.80 0.87 0.98 1.11 1.18 1.21 1.27 1.33 1.41 1.45 1.59 1.71 1.64
0.43 0.44 0.43 0.42 0.45 0.49 0.50 0.51 0.54 0.56 0.61 0.66 0.69 0.70 0.69 0.69 0.71 0.74 0.81 0.85 0.81 0.82 0.74 0.71 0.71 0.71 0.71 0.72 0.77 0.82 0.85 0.86 1.02 1.23 1.35 1.40 1.48 1.53 1.58 1.62 1.63 1.62 1.47
0.43 0.45 0.42 0.42 0.45 0.47 0.50 0.51 0.50 0.48 0.49 0.52 0.56 0.63 0.66 0.67 0.67 0.70 0.78 0.77 0.70 0.69 0.66 0.66 0.65 0.67 0.72 0.76 0.82 0.90 0.96 0.99 1.10 1.25 1.36 1.43 1.53 1.67 1.71 1.64 1.54 1.48 1.39
0.40 0.41 0.41 0.41 0.43 0.45 0.46 0.50 0.50 0.47 0.45 0.43 0.43 0.50 0.60 0.65 0.67 0.70 0.70 0.65 0.63 0.62 0.61 0.62 0.63 0.67 0.74 0.80 0.87 0.95 1.06 1.17 1.25 1.41 1.46 1.49 1.57 1.75 1.73 1.53 1.39 1.29 1.24
0.40 0.43 0.41 0.39 0.41 0.43 0.44 0.46 0.48 0.45 0.44 0.41 0.40 0.41 0.50 0.61 0.61 0.60 0.61 0.61 0.63 0.64 0.62 0.64 0.64 0.69 0.76 0.83 0.89 1.01 1.13 1.20 1.29 1.39 1.45 1.48 1.56 1.67 1.63 1.38 1.20 1.16 1.08
0.39 0.41 0.43 0.40 0.40 0.42 0.45 0.46 0.48 0.48 0.46 0.42 0.41 0.46 0.61 0.64 0.59 0.56 0.59 0.62 0.64 0.67 0.70 0.72 0.71 0.74 0.79 0.86 0.95 1.02 1.15 1.22 1.31 1.43 1.46 1.43 1.42 1.38 1.21 1.15 1.10 1.08 1.09
0.36 0.37 0.37 0.39 0.39 0.42 0.45 0.47 0.47 0.47 0.46 0.44 0.41 0.46 0.58 0.54 0.49 0.49 0.53 0.54 0.55 0.59 0.66 0.76 0.78 0.77 0.90 1.10 1.28 1.37 1.30 1.24 1.27 1.41 1.44 1.32 1.22 1.13 1.07 1.10 1.08 1.09 1.10
0.34 0.35 0.36 0.37 0.39 0.43 0.45 0.42 0.43 0.45 0.45 0.44 0.43 0.42 0.45 0.46 0.45 0.46 0.46 0.46 0.47 0.50 0.54 0.64 0.73 0.72 0.77 1.01 1.30 1.66 1.78 1.56 1.45 1.53 1.59 1.41 1.21 1.13 1.15 1.16 1.09 1.09 1.05
0.33 0.36 0.37 0.38 0.39 0.40 0.41 0.41 0.42 0.43 0.44 0.44 0.42 0.41 0.41 0.43 0.43 0.43 0.43 0.43 0.45 0.46 0.49 0.58 0.66 0.69 0.75 0.96 1.18 1.36 1.52 1.66 1.84 1.83 1.74 1.70 1.43 1.22 1.18 1.16 1.05 0.99 0.99
0.34 0.37 0.38 0.39 0.39 0.40 0.41 0.41 0.41 0.42 0.42 0.43 0.42 0.41 0.41 0.42 0.42 0.42 0.42 0.43 0.45 0.45 0.43 0.50 0.62 0.71 0.79 0.94 1.12 1.26 1.36 1.51 1.64 1.67 1.60 1.52 1.33 1.16 1.13 1.12 1.02 0.96 0.95
0.34 0.36 0.39 0.40 0.40 0.40 0.41 0.42 0.43 0.43 0.44 0.44 0.44 0.44 0.44 0.44 0.43 0.43 0.43 0.45 0.47 0.45 0.43 0.45 0.52 0.65 0.78 0.91 0.99 1.15 1.29 1.26 1.11 1.06 1.24 1.36 1.25 1.07 1.06 1.13 1.04 1.00 0.97